Погода в Усть-Карске

Россия / Забайкальский край     52°42′14″N   118°48′21″E
темп.,
°C
ветер,
м/с
пор.,
м/с
влажн.,
%
обл.,
%
осадки,
мм/ч
давл.,
гПа
погр.,
м
19 января, вт
вт1900:00−30ююз129190 0.0 102639
03:00−29ю128794 0.0 102470
06:00−30ююз129295 0.0 102321
09:00−30ююз129691 0.0 102320
12:00−26ююз258482 0.0 1022394
15:00−23ююз257784 0.0 1020494
18:00−24ююв119869 0.1 102027
21:00−25ююз119885 0.1 101919
20 января, ср
ср2000:00−24ю1299100 0.1 101828
03:00−24ююв1198100 0.1 101820
06:00−24с0199100 0.0 101720
09:00−24ссв1199100 0.1 101820
12:00−22ссв0086100 0.1 1018261
15:00−20всв0180100 0.1 1017430
18:00−24всв1197100 0.0 102020
21:00−25св1198100 0.0 102119
21 января, чт
чт2100:00−26с0199100 0.0 102319
03:00−27ю00100100 0.1 102519
06:00−28ююз1110093 0.0 102619
09:00−29всв009977 0.0 102819
12:00−23с11811 0.0 1027214
15:00−21ссв12721 0.0 1026424
18:00−26всв019043 0.0 102820
21:00−27юз019255 0.0 103019
22 января, пт
пт2200:00−28ююз11920 0.0 103119
03:00−29ююз11930 0.0 103219
06:00−30ююз11961 0.0 103219
09:00−31ю11972 0.0 103319
12:00−25ю127915 0.0 1031232
15:00−22ю127435 0.0 1029346
18:00−26вюв119121 0.0 102919
21:00−27всв009211 0.0 102919
23 января, сб
сб2300:00−28в009460 0.0 102819
03:00−28с009551 0.0 102819
06:00−28вюв009634 0.0 102619
09:00−27юв009668 0.0 102619
12:00−22ю017916 0.0 1024250
15:00−20вюв017754 0.0 1022291
18:00−24ссв119490 0.0 102320
21:00−25ссв119888 0.0 102620